Flag for Bolivia Weather past 2 weeks in Tarija, Bolivia

Now
93 °F

Clear.


Feels Like: 89 °F
Forecast: 48 / 87 °F
Wind: 7 mph from East

Location: Tarija Airport

Current Time: Aug 29, 2015 at 4:03:39 PM

Latest Report: Aug 29, 2015 at 3:00 PM


Visibility: N/A

Pressure: 30.04 "Hg (24.39 "Hg at 1874m altitude)

Humidity: 17%

Dew point: 43 °F

Location of TarijaLocation

Historic Weather in Tarija — Graph

°F

Tarija temperature yesterday

Maximum temperature yesterday: 86 °F (at 3:00 PM)
Minimum temperature yesterday: 46 °F (at 7:00 AM)
Average temperature yesterday: 68 °F

Past Weeks' High & Low Weather Summary

 TemperatureHumidityPressure
High93 °F (Aug 29, 3:00 PM)94% (Aug 24, 5:00 AM)30.33 "Hg (Aug 24, 5:00 AM)
Low36 °F (Aug 16, 7:00 AM)15% (Aug 17, 2:00 PM)29.77 "Hg (Aug 17, 3:00 PM)
Average63 °F54%30.09 "Hg
* Reported Aug 14 3:00 PM — Aug 29 3:00 PM, Tarija, Weather by CustomWeather, © 2015

Note: Actual official high and low records may vary slightly from our data, if they occured in-between our weather recording intervals... More about our weather records

Advertising

Tarija weather history for previous 24 hours

 ConditionsComfort  
Time TempWeatherWind HumidityBarometerVisibility
3:00 PM
Sat, Aug 29
93 °FClear.7 mph17%30.04 "HgN/A
2:00 PM91 °FClear.6 mph24%30.07 "HgN/A
1:00 PM88 °FClear.No wind27%30.12 "HgN/A
12:00 PM81 °FClear.5 mph32%30.15 "HgN/A
11:00 AM75 °FClear.No wind39%30.18 "HgN/A
10:00 AM70 °FClear.No wind46%30.18 "HgN/A
9:00 AM64 °FClear.No wind49%30.18 "HgN/A
8:00 AM52 °FClear.No wind67%30.18 "HgN/A
7:00 AM45 °FClear.No wind71%30.18 "HgN/A
6:00 AM43 °FClear.No wind81%30.15 "HgN/A
5:00 AM48 °FClear.No wind71%30.12 "HgN/A
10:00 PM
Fri, Aug 28
59 °FClear.No wind55%30.24 "HgN/A
9:00 PM61 °FClear.No wind59%30.21 "HgN/A
8:00 PM68 °FClear.5 mph46%30.18 "HgN/A
7:00 PM72 °FClear.9 mph41%30.15 "HgN/A
6:00 PM75 °FClear.9 mph39%30.12 "HgN/A
5:00 PM81 °FClear.12 mph34%30.09 "HgN/A
4:00 PM86 °FClear.9 mph25%30.09 "HgN/A
Weather by CustomWeather, © 2015

See weather overviewHow to use our weather pages